period_start,C,m1,H,J0,J1,J2,J3,J4,J5,JA,JB,JC,JD,JJ,JK,JN,#
2017-02-28 00:04:49,0.13,0.18,0.00,18.95,21.94,26.14,15.13,47.39,1038.59,2048.98,3448.39,3090.71,3528.32,600.27,617.81,1.22,0000 0000 0000 0000 000000
2017-02-28 00:09:50,0.11,0.19,0.00,18.96,21.94,26.14,15.07,47.42,1038.59,2048.98,3445.40,3089.01,3526.11,600.13,617.40,1.27,0000 0000 0000 0000 000000
2017-02-28 00:14:51,0.11,0.20,0.00,18.98,21.94,26.15,15.00,47.43,1038.58,2048.98,3442.55,3087.41,3523.96,600.04,617.37,1.32,0000 0000 0000 0000 000000
2017-02-28 00:19:53,0.12,0.20,0.00,18.98,21.94,26.16,15.07,47.60,1038.58,2048.99,3439.66,3085.79,3521.71,600.04,617.31,1.37,0000 0000 0000 0000 000000
2017-02-28 00:24:54,0.11,0.21,0.00,18.99,21.94,26.16,14.98,47.56,1038.58,2048.97,3436.70,3084.11,3519.60,599.85,617.11,1.42,0000 0000 0000 0000 000000
2017-02-28 00:29:55,0.12,0.21,0.00,18.99,21.94,26.17,14.99,47.56,1038.54,2048.97,3433.70,3082.49,3517.52,599.80,617.05,1.47,0000 0000 0000 0000 000000
2017-02-28 00:34:56,0.12,0.22,0.00,19.02,21.95,26.20,15.02,47.59,1038.56,2048.98,3430.75,3080.79,3515.27,600.08,617.43,1.52,0000 0000 0000 0000 000000
2017-02-28 00:39:57,0.11,0.23,0.00,19.04,21.95,26.18,14.95,47.66,1038.58,2048.97,3427.92,3079.21,3513.09,599.41,616.63,1.58,0000 0000 0000 0000 000000
2017-02-28 00:44:59,0.12,0.23,0.00,19.04,21.97,26.19,15.06,47.67,1038.58,2048.98,3425.04,3077.57,3510.91,599.96,617.12,1.63,0000 0000 0000 0000 000000
2017-02-28 00:50:00,0.12,0.24,0.00,19.07,21.97,26.21,15.08,47.77,1038.58,2048.98,3422.10,3075.87,3508.68,600.18,617.22,1.68,0000 0000 0000 0000 000000
2017-02-28 00:55:01,0.11,0.24,0.00,19.08,21.97,26.24,15.01,47.62,1038.59,2048.96,3419.13,3074.28,3506.55,599.78,616.90,1.73,0000 0000 0000 0000 000000
2017-02-28 01:00:02,0.12,0.25,0.00,19.10,21.98,26.24,14.99,47.66,1038.59,2048.98,3416.13,3072.60,3504.40,599.81,616.75,1.78,0000 0000 0000 0000 000000
2017-02-28 01:05:04,0.12,0.26,0.00,19.09,21.99,26.25,15.01,47.79,1038.58,2048.99,3413.15,3070.94,3502.21,599.66,616.73,1.83,0000 0000 0000 0000 000000
2017-02-28 01:10:05,0.11,0.26,0.00,19.13,22.00,26.27,15.06,47.83,1038.59,2048.97,3410.24,3069.38,3500.01,600.21,617.14,1.88,0000 0000 0000 0000 000000
2017-02-28 01:15:07,0.13,0.27,0.00,19.17,22.02,26.27,15.04,48.02,1038.60,2048.97,3407.24,3067.62,3497.71,600.16,617.06,1.93,0000 0000 0000 0000 000000
2017-02-28 01:20:08,0.12,0.27,0.00,19.21,22.02,26.30,15.05,48.21,1038.61,2048.97,3404.32,3065.89,3495.43,599.90,616.65,1.98,0000 0000 0000 0000 000000
2017-02-28 01:25:09,0.11,0.28,0.00,19.23,22.04,26.31,14.97,48.05,1038.64,2048.93,3401.40,3064.22,3493.10,600.06,616.92,2.03,0000 0000 0000 0000 000000
2017-02-28 01:30:11,0.11,0.29,0.00,19.27,22.05,26.32,15.04,48.06,1038.81,2048.85,3398.51,3062.53,3490.82,599.89,616.72,2.08,0000 0000 0000 0000 000000
2017-02-28 01:35:12,0.08,0.29,0.00,19.29,22.07,26.36,14.98,47.88,1038.76,2048.35,3395.42,3060.67,3488.39,600.28,617.03,2.13,0000 0000 0000 0000 000000
2017-02-28 01:40:13,0.13,0.30,0.00,19.31,22.09,26.37,15.04,47.98,1038.64,2048.25,3392.35,3058.88,3486.09,599.97,616.53,2.18,0000 0000 0000 0000 000000
2017-02-28 01:45:15,0.20,0.31,0.00,19.34,22.11,26.38,15.03,48.02,1038.68,2048.10,3387.70,3056.08,3482.50,599.76,616.31,2.23,0000 0000 0000 0000 000000
2017-02-28 01:50:16,0.13,0.31,0.00,19.36,22.13,26.41,14.99,47.92,1038.74,2048.06,3384.02,3053.90,3479.72,599.81,616.59,2.28,0000 0000 0000 0000 000000
2017-02-28 01:55:17,0.14,0.32,0.00,19.37,22.14,26.44,15.10,47.96,1038.93,2048.02,3380.60,3051.87,3477.07,600.33,617.06,2.33,0000 0000 0000 0000 000000
2017-02-28 02:00:18,0.15,0.33,0.00,19.41,22.17,26.44,14.98,48.05,1039.02,2048.00,3376.89,3049.59,3474.22,599.83,616.36,2.38,0000 0000 0000 0000 000000
2017-02-28 02:05:19,0.18,0.34,0.00,19.42,22.19,26.48,15.04,48.02,1039.06,2048.00,3372.74,3047.13,3471.14,600.58,617.20,2.43,0000 0000 0000 0000 000000
2017-02-28 02:10:21,0.17,0.35,0.00,19.45,22.21,26.48,15.05,48.04,1039.08,2048.00,3368.74,3044.75,3468.17,599.78,616.46,2.48,0000 0000 0000 0000 000000
2017-02-28 02:15:22,0.37,0.36,0.00,19.48,22.23,26.52,15.04,48.13,1039.08,2048.00,3361.66,3040.40,3462.83,600.32,616.85,2.53,0000 0000 0000 0000 000000
2017-02-28 02:20:23,0.18,0.38,0.00,19.53,22.25,26.53,15.00,48.03,1039.08,2047.98,3355.82,3036.75,3458.35,599.88,616.38,2.58,0000 0000 0000 0000 000000
2017-02-28 02:25:24,0.11,0.38,0.00,19.53,22.28,26.54,14.93,47.95,1039.08,2047.89,3352.82,3034.91,3455.91,599.78,616.20,2.63,0000 0000 0000 0000 000000
2017-02-28 02:30:25,0.09,0.39,0.00,19.57,22.30,26.56,15.00,47.95,1039.08,2047.50,3349.54,3032.92,3453.43,599.83,616.13,2.68,0000 0000 0000 0000 000000
2017-02-28 02:35:26,0.11,0.39,0.00,19.61,22.32,26.58,15.04,47.97,1039.08,2047.08,3346.27,3030.94,3450.90,600.19,616.47,2.73,0000 0000 0000 0000 000000
2017-02-28 02:40:28,0.13,0.40,0.00,19.63,22.34,26.62,15.03,48.02,1039.08,2047.03,3343.13,3029.02,3448.42,600.11,616.32,2.78,0000 0000 0000 0000 000000
2017-02-28 02:45:29,0.14,0.41,0.00,19.65,22.37,26.64,15.01,48.02,1039.08,2047.00,3339.87,3027.03,3445.82,599.94,616.06,2.83,0000 0000 0000 0000 000000
2017-02-28 02:50:31,0.14,0.41,0.00,19.69,22.39,26.66,14.93,48.04,1039.08,2047.00,3336.56,3024.97,3443.22,599.90,616.01,2.88,0000 0000 0000 0000 000000
2017-02-28 02:55:32,0.20,0.42,0.00,19.75,22.41,26.68,15.01,48.02,1039.09,2047.00,3332.45,3022.45,3440.02,599.84,615.81,2.93,0000 0000 0000 0000 000000
2017-02-28 03:00:33,0.39,0.44,0.00,19.79,22.44,26.71,14.96,48.12,1039.10,2047.00,3324.42,3017.46,3434.14,600.03,615.91,2.98,0000 0000 0000 0000 000000
2017-02-28 03:05:34,0.46,0.46,0.00,19.81,22.47,26.72,15.03,48.10,1039.11,2047.00,3314.00,3011.16,3426.74,600.04,615.99,3.03,0000 0000 0000 0000 000000
2017-02-28 03:10:36,0.49,0.48,0.00,19.83,22.49,26.76,14.95,48.07,1039.18,2047.00,3302.63,3004.44,3418.71,599.78,615.58,3.08,0000 0000 0000 0000 000000
2017-02-28 03:15:37,0.49,0.51,0.00,19.88,22.52,26.77,14.95,48.03,1039.32,2047.00,3291.12,2997.53,3410.59,599.77,615.60,3.13,0000 0000 0000 0000 000000
2017-02-28 03:20:38,0.49,0.53,0.00,19.90,22.54,26.81,14.94,48.13,1039.34,2046.97,3279.90,2990.75,3402.71,599.93,615.65,3.18,0000 0000 0000 0000 000000
2017-02-28 03:25:39,0.47,0.56,0.00,19.94,22.58,26.85,14.99,48.03,1039.46,2046.98,3269.00,2984.15,3395.05,599.85,615.69,3.23,0000 0000 0000 0000 000000
2017-02-28 03:30:41,0.44,0.58,0.00,19.98,22.60,26.88,14.94,48.11,1039.46,2046.91,3258.69,2977.81,3387.83,599.98,615.69,3.28,0000 0000 0000 0000 000000
2017-02-28 03:35:42,0.42,0.60,0.00,20.02,22.63,26.88,14.94,48.10,1039.34,2046.59,3248.23,2971.36,3380.36,600.34,615.90,3.33,0000 0000 0000 0000 000000
2017-02-28 03:40:43,0.35,0.63,0.00,20.05,22.66,26.92,14.98,48.16,1039.34,2046.15,3239.08,2965.80,3373.89,599.90,615.38,3.38,0000 0000 0000 0000 000000
2017-02-28 03:45:45,0.52,0.65,0.00,20.08,22.69,26.93,14.96,48.27,1039.33,2046.02,3228.44,2959.28,3366.29,599.97,615.41,3.43,0000 0000 0000 0000 000000
2017-02-28 03:50:46,0.76,0.68,0.00,20.11,22.72,26.96,14.95,48.19,1039.39,2046.00,3211.93,2949.19,3354.67,599.73,615.12,3.48,0000 0000 0000 0000 000000
2017-02-28 03:55:47,0.60,0.72,0.00,20.15,22.75,26.99,14.98,48.17,1039.36,2046.00,3197.81,2940.74,3344.75,599.94,615.19,3.53,0000 0000 0000 0000 000000
2017-02-28 04:00:48,0.60,0.75,0.77,20.19,22.79,27.05,14.96,48.04,1039.43,2046.00,3184.51,2932.69,3335.34,599.83,615.05,3.58,0000 0000 0000 0000 000000
2017-02-28 04:05:49,0.60,0.77,1.00,20.22,22.82,27.08,14.87,48.20,1039.35,2045.98,3171.62,2924.89,3326.37,599.91,614.93,3.63,0000 0000 0000 0000 000000
2017-02-28 04:10:50,0.62,0.81,1.00,20.29,22.85,27.11,15.03,48.12,1039.47,2045.85,3157.26,2916.08,3316.30,599.80,614.92,3.68,0000 0000 0000 0000 000000
2017-02-28 04:15:51,0.45,0.83,1.00,20.33,22.88,27.14,14.93,48.13,1039.54,2045.37,3146.16,2908.92,3308.01,600.01,615.03,3.73,0000 0000 0000 0000 000000
2017-02-28 04:20:53,0.21,0.85,1.00,20.33,22.91,27.16,14.91,48.13,1039.56,2045.04,3139.82,2904.87,3303.18,599.95,615.07,3.78,0000 0000 0000 0000 000000
2017-02-28 04:25:54,0.18,0.86,1.00,20.40,22.95,27.20,15.06,48.17,1039.57,2045.00,3135.80,2902.28,3299.95,600.17,615.09,3.83,0000 0000 0000 0000 000000
2017-02-28 04:30:55,0.16,0.87,0.20,20.43,22.98,27.24,15.00,48.24,1039.56,2045.00,3132.36,2899.97,3297.15,599.85,614.54,3.88,0000 0000 0000 0000 000000
2017-02-28 04:35:56,0.16,0.88,0.00,20.47,23.01,27.26,14.93,48.15,1039.56,2044.99,3129.00,2897.90,3294.47,600.31,615.04,3.93,0000 0000 0000 0000 000000
2017-02-28 04:40:57,0.18,0.88,0.00,20.52,23.05,27.31,14.97,48.30,1039.57,2044.97,3125.36,2895.62,3291.74,600.04,614.69,3.99,0000 0000 0000 0000 000000
2017-02-28 04:45:59,0.18,0.89,0.00,20.54,23.08,27.33,15.01,48.33,1039.57,2044.82,3121.20,2893.06,3288.51,600.01,614.50,4.04,0000 0000 0000 0000 000000
2017-02-28 04:51:00,0.14,0.90,0.00,20.57,23.12,27.36,14.95,48.25,1039.56,2044.39,3116.96,2890.40,3285.27,600.06,614.53,4.09,0000 0000 0000 0000 000000
2017-02-28 04:56:02,0.17,0.91,0.00,20.58,23.16,27.40,14.91,48.42,1039.57,2044.08,3113.01,2887.83,3282.08,599.92,614.43,4.14,0000 0000 0000 0000 000000
2017-02-28 05:01:04,0.25,0.92,0.00,20.63,23.20,27.42,14.98,48.43,1039.57,2044.01,3108.23,2884.83,3278.37,600.09,614.61,4.19,0000 0000 0000 0000 000000
2017-02-28 05:06:05,0.37,0.94,0.00,20.64,23.24,27.46,14.94,48.46,1039.57,2044.00,3100.76,2880.09,3272.70,599.68,614.07,4.24,0000 0000 0000 0000 000000
2017-02-28 05:11:07,0.31,0.95,0.00,20.65,23.28,27.50,14.93,48.38,1039.58,2043.99,3094.34,2876.02,3267.57,599.51,613.86,4.29,0000 0000 0000 0000 000000
2017-02-28 05:16:08,0.60,0.98,0.00,20.71,23.31,27.53,14.85,48.40,1039.58,2043.98,3083.52,2869.11,3259.67,600.01,614.37,4.34,0000 0000 0000 0000 000000
2017-02-28 05:21:09,0.67,1.01,0.00,20.72,23.35,27.58,14.90,48.42,1039.57,2043.81,3069.49,2860.03,3249.32,599.86,614.03,4.39,0000 0000 0000 0000 000000
2017-02-28 05:26:10,0.67,1.04,0.00,20.74,23.38,27.63,14.91,48.36,1039.57,2043.18,3054.61,2850.51,3238.39,600.28,614.49,4.44,0000 0000 0000 0000 000000
2017-02-28 05:31:11,0.66,1.08,0.87,20.78,23.41,27.64,14.89,48.36,1039.57,2043.02,3040.44,2841.51,3228.08,600.19,614.25,4.49,0000 0000 0000 0000 000000
2017-02-28 05:36:12,0.68,1.11,1.00,20.81,23.45,27.67,15.02,48.40,1039.57,2043.00,3026.99,2832.87,3218.20,600.27,614.31,4.54,0000 0000 0000 0000 000000
2017-02-28 05:41:13,0.62,1.15,1.00,20.81,23.48,27.68,14.88,48.45,1039.57,2043.00,3013.91,2824.61,3208.74,599.79,613.78,4.59,0000 0000 0000 0000 000000
2017-02-28 05:46:14,0.54,1.17,1.00,20.85,23.51,27.72,15.02,48.58,1039.57,2042.95,3002.71,2817.42,3200.49,600.06,614.16,4.64,0000 0000 0000 0000 000000
2017-02-28 05:51:15,0.49,1.20,1.00,20.86,23.54,27.77,14.93,48.53,1039.58,2042.83,2992.64,2811.02,3192.99,599.95,613.94,4.69,0000 0000 0000 0000 000000
2017-02-28 05:56:16,0.37,1.22,1.00,20.88,23.58,27.80,14.90,48.36,1039.59,2042.55,2984.01,2805.56,3186.50,600.08,613.91,4.74,0000 0000 0000 0000 000000
2017-02-28 06:01:18,0.28,1.24,1.00,20.91,23.61,27.83,14.99,48.48,1039.57,2042.15,2977.34,2801.36,3181.55,600.02,613.84,4.79,0000 0000 0000 0000 000000
2017-02-28 06:06:19,0.36,1.25,1.00,20.93,23.64,27.84,14.87,48.44,1039.58,2042.01,2970.40,2796.96,3176.36,599.80,613.50,4.84,0000 0000 0000 0000 000000
2017-02-28 06:11:20,0.31,1.27,1.00,20.93,23.67,27.87,14.91,48.41,1039.58,2042.00,2963.75,2792.73,3171.32,600.09,613.80,4.89,0000 0000 0000 0000 000000
2017-02-28 06:16:22,0.21,1.28,1.00,20.96,23.70,27.91,14.88,48.46,1039.57,2042.00,2959.19,2789.85,3167.82,600.11,613.82,4.94,0000 0000 0000 0000 000000
2017-02-28 06:21:23,0.20,1.29,1.00,20.98,23.73,27.92,15.02,48.45,1039.57,2042.00,2955.27,2787.39,3164.70,600.20,613.87,4.99,0000 0000 0000 0000 000000
2017-02-28 06:26:24,0.21,1.30,1.00,20.99,23.76,27.95,14.95,48.49,1039.57,2041.98,2951.26,2784.72,3161.50,600.17,613.77,5.04,0000 0000 0000 0000 000000
2017-02-28 06:31:25,0.25,1.32,0.10,21.02,23.79,27.99,14.93,48.41,1039.56,2041.84,2946.57,2781.60,3157.69,600.22,613.78,5.09,0000 0000 0000 0000 000000
2017-02-28 06:36:27,0.20,1.33,0.00,21.05,23.82,28.01,14.95,48.42,1039.54,2041.19,2941.42,2778.17,3153.58,600.12,613.67,5.14,0000 0000 0000 0000 000000
2017-02-28 06:41:28,0.30,1.34,0.00,21.04,23.85,28.04,14.98,48.38,1039.44,2041.05,2935.72,2774.56,3149.24,600.31,613.65,5.19,0000 0000 0000 0000 000000
2017-02-28 06:46:29,0.35,1.36,0.00,21.07,23.87,28.07,14.94,48.25,1039.19,2041.01,2928.88,2770.20,3144.08,600.10,613.32,5.24,0000 0000 0000 0000 000000
2017-02-28 06:51:31,0.38,1.38,0.00,21.09,23.89,28.08,14.98,48.23,1039.12,2041.00,2921.61,2765.58,3138.61,600.13,613.31,5.29,0000 0000 0000 0000 000000
2017-02-28 06:56:32,0.41,1.40,0.00,21.08,23.92,28.11,14.94,48.14,1039.11,2041.00,2913.70,2760.62,3132.92,600.17,613.37,5.34,0000 0000 0000 0000 000000
2017-02-28 07:01:34,0.47,1.42,0.00,21.11,23.94,28.13,14.97,48.18,1039.09,2040.99,2904.90,2755.09,3126.44,600.16,613.24,5.39,0000 0000 0000 0000 000000
2017-02-28 07:06:35,0.45,1.44,0.00,21.12,23.96,28.14,15.00,48.19,1039.08,2040.98,2896.06,2749.55,3119.94,600.16,613.37,5.44,0000 0000 0000 0000 000000
2017-02-28 07:11:36,0.39,1.46,0.00,21.12,23.97,28.19,15.03,48.26,1039.09,2040.85,2887.84,2744.38,3113.89,600.29,613.35,5.49,0000 0000 0000 0000 000000
2017-02-28 07:16:37,0.30,1.48,0.00,21.16,23.99,28.21,14.97,48.27,1039.08,2040.38,2880.89,2740.01,3108.79,599.96,612.93,5.54,0000 0000 0000 0000 000000
2017-02-28 07:21:38,0.30,1.49,0.00,21.15,24.00,28.21,15.01,48.20,1039.08,2040.17,2874.77,2736.12,3104.13,600.42,613.46,5.59,0000 0000 0000 0000 000000
2017-02-28 07:26:39,0.19,1.51,0.00,21.16,24.02,28.24,14.96,48.08,1039.05,2040.05,2870.30,2733.43,3100.76,600.07,613.07,5.64,0000 0000 0000 0000 000000
2017-02-28 07:31:40,0.20,1.52,0.00,21.19,24.03,28.25,14.89,48.05,1038.88,2040.02,2866.46,2731.08,3097.87,600.01,612.95,5.69,0000 0000 0000 0000 000000
2017-02-28 07:36:42,0.26,1.53,0.00,21.20,24.05,28.27,14.85,47.95,1038.81,2040.00,2861.63,2728.02,3094.21,599.82,612.58,5.74,0000 0000 0000 0000 000000
2017-02-28 07:41:43,0.19,1.54,0.00,21.20,24.06,28.28,14.95,48.17,1038.83,2040.00,2857.50,2725.52,3091.11,600.10,612.90,5.79,0000 0000 0000 0000 000000
2017-02-28 07:46:45,0.16,1.55,0.00,21.20,24.07,28.29,14.94,48.26,1038.69,2040.00,2854.11,2723.54,3088.65,600.12,612.87,5.84,0000 0000 0000 0000 000000
2017-02-28 07:51:46,0.15,1.56,0.00,21.20,24.09,28.30,14.89,48.11,1038.61,2040.00,2851.08,2721.77,3086.39,600.25,612.80,5.89,0000 0000 0000 0000 000000
2017-02-28 07:56:47,0.15,1.57,0.00,21.23,24.10,28.31,14.82,48.03,1038.60,2039.99,2848.17,2720.02,3084.20,599.76,612.35,5.94,0000 0000 0000 0000 000000
2017-02-28 08:01:49,0.15,1.57,0.00,21.20,24.11,28.33,14.95,48.05,1038.59,2039.99,2845.30,2718.25,3081.94,599.98,612.62,5.99,0000 0000 0000 0000 000000
2017-02-28 08:06:50,0.16,1.58,0.00,21.20,24.12,28.34,14.88,47.98,1038.60,2039.99,2842.19,2716.41,3079.59,599.94,612.64,6.04,0000 0000 0000 0000 000000
2017-02-28 08:11:52,0.15,1.59,0.00,21.22,24.12,28.34,14.92,48.05,1038.60,2039.96,2839.09,2714.61,3077.26,600.26,612.87,6.09,0000 0000 0000 0000 000000
2017-02-28 08:16:53,0.15,1.60,0.00,21.23,24.13,28.34,14.97,48.02,1038.62,2039.97,2836.18,2712.90,3075.17,600.04,612.63,6.14,0000 0000 0000 0000 000000
2017-02-28 08:21:54,0.14,1.61,0.00,21.20,24.15,28.35,14.82,47.92,1038.68,2039.97,2833.25,2711.27,3073.05,600.06,612.66,6.19,0000 0000 0000 0000 000000
2017-02-28 08:26:55,0.14,1.61,0.00,21.21,24.15,28.34,14.96,48.08,1038.73,2039.97,2830.41,2709.61,3071.08,600.50,613.15,6.24,0000 0000 0000 0000 000000
2017-02-28 08:31:57,0.14,1.62,0.00,21.22,24.15,28.36,14.99,48.02,1038.74,2039.95,2827.60,2707.97,3069.06,600.00,612.69,6.29,0000 0000 0000 0000 000000
2017-02-28 08:36:58,0.15,1.63,0.00,21.21,24.15,28.36,14.96,47.92,1038.65,2039.95,2824.80,2706.31,3066.81,600.16,612.82,6.35,0000 0000 0000 0000 000000
2017-02-28 08:42:00,0.14,1.63,0.00,21.21,24.17,28.38,14.94,47.96,1038.61,2039.85,2821.65,2704.46,3064.50,600.05,612.80,6.40,0000 0000 0000 0000 000000
2017-02-28 08:47:01,0.15,1.64,0.00,21.23,24.17,28.37,14.93,47.88,1038.60,2039.76,2818.63,2702.67,3062.24,599.83,612.29,6.45,0000 0000 0000 0000 000000
2017-02-28 08:52:02,0.13,1.65,0.00,21.20,24.17,28.37,14.87,47.91,1038.59,2039.56,2815.74,2700.93,3060.02,600.03,612.68,6.50,0000 0000 0000 0000 000000
2017-02-28 08:57:03,0.13,1.66,0.00,21.19,24.17,28.39,14.89,47.94,1038.61,2039.36,2812.72,2699.25,3057.84,599.95,612.57,6.55,0000 0000 0000 0000 000000
2017-02-28 09:02:05,0.14,1.66,0.00,21.20,24.17,28.36,14.95,48.03,1038.63,2039.31,2809.67,2697.58,3055.78,600.31,612.97,6.60,0000 0000 0000 0000 000000
2017-02-28 09:07:06,0.17,1.67,0.00,21.17,24.17,28.34,14.96,47.93,1038.89,2039.42,2806.80,2695.88,3053.62,599.76,612.68,6.65,0000 0000 0000 0000 000000
2017-02-28 09:12:08,0.11,1.68,0.00,21.19,24.19,28.34,14.95,47.87,1039.06,2039.19,2804.05,2694.19,3051.47,600.14,613.12,6.70,0000 0000 0000 0000 000000
2017-02-28 09:17:09,0.15,1.68,0.00,21.18,24.19,28.35,14.98,47.89,1039.08,2039.14,2801.34,2692.65,3049.40,599.96,612.90,6.75,0000 0000 0000 0000 000000
2017-02-28 09:22:11,0.13,1.69,0.00,21.15,24.20,28.33,14.88,47.89,1039.10,2039.08,2798.44,2691.05,3047.43,599.72,612.75,6.80,0000 0000 0000 0000 000000
2017-02-28 09:27:12,0.19,1.70,0.00,21.15,24.20,28.33,14.92,47.94,1039.19,2039.04,2795.00,2689.12,3045.02,600.08,613.19,6.85,0000 0000 0000 0000 000000
2017-02-28 09:32:13,0.27,1.71,0.00,21.16,24.20,28.33,14.85,47.88,1039.15,2039.04,2789.73,2686.12,3041.37,599.71,612.77,6.90,0000 0000 0000 0000 000000
2017-02-28 09:37:14,0.35,1.73,0.00,21.12,24.20,28.32,14.92,47.94,1039.10,2039.04,2783.61,2682.44,3036.95,600.04,613.08,6.95,0000 0000 0000 0000 000000
2017-02-28 09:42:15,0.34,1.75,0.00,21.12,24.20,28.31,14.86,48.01,1039.10,2039.06,2777.31,2678.53,3032.41,599.95,612.98,7.00,0000 0000 0000 0000 000000
2017-02-28 09:47:16,0.23,1.76,0.00,21.13,24.20,28.32,14.90,47.97,1039.13,2039.05,2772.53,2675.55,3028.85,600.10,613.20,7.05,0000 0000 0000 0000 000000
2017-02-28 09:52:18,0.23,1.77,0.00,21.11,24.20,28.29,14.92,48.18,1039.14,2039.04,2768.14,2672.84,3025.56,599.98,613.17,7.10,0000 0000 0000 0000 000000
2017-02-28 09:57:19,0.22,1.78,0.00,21.11,24.20,28.30,14.99,48.15,1039.16,2039.01,2763.94,2670.32,3022.47,600.20,613.33,7.15,0000 0000 0000 0000 000000
2017-02-28 10:02:20,0.21,1.79,0.00,21.10,24.20,28.32,14.97,48.27,1039.28,2039.04,2760.12,2668.04,3019.65,600.03,613.30,7.20,0000 0000 0000 0000 000000
2017-02-28 10:07:21,0.18,1.80,0.00,21.09,24.20,28.31,14.92,48.25,1039.31,2039.04,2756.67,2665.97,3017.15,600.06,613.35,7.25,0000 0000 0000 0000 000000
2017-02-28 10:12:23,0.18,1.81,0.00,21.07,24.19,28.27,15.00,48.27,1039.37,2039.03,2753.08,2663.84,3014.52,600.18,613.56,7.30,0000 0000 0000 0000 000000
2017-02-28 10:17:24,0.18,1.82,0.00,21.10,24.19,28.30,14.95,48.27,1039.49,2039.03,2750.00,2661.92,3012.10,600.06,613.45,7.35,0000 0000 0000 0000 000000
2017-02-28 10:22:25,0.21,1.83,0.00,21.08,24.19,28.29,14.95,48.27,1039.57,2039.03,2746.08,2659.43,3009.02,600.17,613.48,7.40,0000 0000 0000 0000 000000
2017-02-28 10:27:26,0.22,1.84,0.00,21.06,24.19,28.28,14.90,48.02,1039.57,2039.04,2742.21,2657.06,3006.22,599.77,613.28,7.45,0000 0000 0000 0000 000000
2017-02-28 10:32:28,0.24,1.86,0.00,21.07,24.18,28.28,14.91,48.06,1039.57,2039.04,2737.89,2654.35,3003.02,600.11,613.60,7.50,0000 0000 0000 0000 000000
2017-02-28 10:37:29,0.23,1.87,0.00,21.05,24.17,28.26,14.88,47.98,1039.57,2039.03,2733.53,2651.63,2999.79,599.67,613.17,7.55,0000 0000 0000 0000 000000
2017-02-28 10:42:30,0.23,1.88,0.00,21.01,24.17,28.26,15.01,47.98,1039.57,2039.03,2729.30,2649.07,2996.60,599.95,613.56,7.60,0000 0000 0000 0000 000000
2017-02-28 10:47:32,0.25,1.89,0.00,21.03,24.17,28.26,15.02,47.98,1039.57,2039.02,2724.87,2646.35,2993.33,600.04,613.61,7.65,0000 0000 0000 0000 000000
2017-02-28 10:52:33,0.31,1.91,0.00,20.99,24.17,28.26,14.87,47.92,1039.57,2039.01,2719.53,2643.16,2989.55,600.08,613.77,7.70,0000 0000 0000 0000 000000
2017-02-28 10:57:34,0.32,1.92,0.00,20.97,24.16,28.22,14.81,47.86,1039.56,2039.02,2713.47,2639.58,2985.29,599.69,613.47,7.75,0000 0000 0000 0000 000000
2017-02-28 11:02:35,0.29,1.94,0.00,20.99,24.15,28.22,14.92,47.95,1039.50,2039.02,2707.82,2636.25,2981.31,600.05,613.51,7.80,0000 0000 0000 0000 000000
2017-02-28 11:07:36,0.26,1.95,0.00,20.97,24.15,28.21,14.93,48.07,1039.51,2039.02,2702.93,2633.29,2977.82,599.70,613.34,7.85,0000 0000 0000 0000 000000
2017-02-28 11:12:38,0.25,1.96,0.00,20.93,24.13,28.18,14.96,48.02,1039.56,2039.02,2698.36,2630.59,2974.55,599.90,613.66,7.90,0000 0000 0000 0000 000000
2017-02-28 11:17:39,0.31,1.98,0.00,20.94,24.12,28.18,14.94,48.00,1039.56,2039.01,2692.92,2627.35,2970.67,600.28,613.98,7.95,0000 0000 0000 0000 000000
2017-02-28 11:22:40,0.30,1.99,0.00,20.93,24.12,28.17,14.89,48.00,1039.55,2039.02,2687.45,2624.12,2966.85,599.92,613.47,8.00,0000 0000 0000 0000 000000
2017-02-28 11:27:41,0.26,2.01,0.00,20.91,24.10,28.16,14.96,48.13,1039.52,2039.02,2682.49,2621.28,2963.27,599.97,613.81,8.05,0000 0000 0000 0000 000000
2017-02-28 11:32:43,0.25,2.02,0.00,20.92,24.10,28.16,14.95,48.10,1039.52,2039.04,2678.03,2618.66,2960.06,599.87,613.63,8.10,0000 0000 0000 0000 000000
2017-02-28 11:37:44,0.24,2.03,0.00,20.93,24.09,28.14,15.01,48.10,1039.43,2039.05,2673.73,2616.10,2956.96,600.07,613.88,8.15,0000 0000 0000 0000 000000
2017-02-28 11:42:45,0.25,2.05,0.00,20.89,24.07,28.10,14.98,48.17,1039.35,2039.01,2669.20,2613.44,2953.80,599.96,613.57,8.20,0000 0000 0000 0000 000000
2017-02-28 11:47:46,0.26,2.06,0.00,20.87,24.06,28.09,14.97,48.07,1039.49,2039.09,2664.58,2610.72,2950.53,600.21,614.09,8.25,0000 0000 0000 0000 000000
2017-02-28 11:52:48,0.24,2.07,0.00,20.86,24.05,28.11,14.87,47.99,1039.44,2039.16,2660.17,2608.14,2947.40,599.68,613.48,8.30,0000 0000 0000 0000 000000
2017-02-28 11:57:49,0.22,2.09,0.00,20.83,24.05,28.09,14.94,48.04,1039.33,2039.19,2656.12,2605.77,2944.53,600.18,614.02,8.35,0000 0000 0000 0000 000000
2017-02-28 12:02:50,0.23,2.10,0.00,20.81,24.02,28.10,14.93,48.00,1039.13,2039.37,2652.27,2603.54,2941.96,600.20,614.03,8.40,0000 0000 0000 0000 000000
2017-02-28 12:07:51,0.20,2.11,0.00,20.83,24.02,28.06,14.98,48.08,1039.13,2039.36,2648.50,2601.37,2939.32,600.04,613.70,8.45,0000 0000 0000 0000 000000
2017-02-28 12:12:52,0.20,2.12,0.00,20.81,24.01,28.06,14.88,48.09,1039.10,2039.52,2645.16,2599.47,2936.99,599.59,613.42,8.50,0000 0000 0000 0000 000000
2017-02-28 12:17:53,0.19,2.13,0.00,20.77,24.00,28.04,14.96,48.16,1039.08,2039.84,2642.14,2597.73,2934.86,600.20,613.85,8.55,0000 0000 0000 0000 000000
2017-02-28 12:22:54,0.16,2.14,0.00,20.76,24.00,28.01,14.92,48.12,1039.09,2039.95,2639.18,2596.04,2932.77,600.17,614.03,8.60,0000 0000 0000 0000 000000
2017-02-28 12:27:56,0.19,2.15,0.00,20.78,23.97,28.00,14.95,48.24,1039.08,2039.96,2635.86,2594.13,2930.37,600.10,613.96,8.65,0000 0000 0000 0000 000000
2017-02-28 12:32:57,0.18,2.16,0.00,20.75,23.97,27.96,14.97,48.27,1039.08,2039.95,2632.49,2592.22,2928.02,600.20,614.09,8.70,0000 0000 0000 0000 000000
2017-02-28 12:37:58,0.17,2.16,0.00,20.71,23.96,27.98,14.96,48.17,1039.08,2039.96,2629.41,2590.34,2925.73,599.89,613.83,8.75,0000 0000 0000 0000 000000
2017-02-28 12:42:59,0.18,2.17,0.00,20.73,23.95,27.97,14.97,48.26,1039.08,2039.97,2626.28,2588.56,2923.46,600.26,614.15,8.81,0000 0000 0000 0000 000000
2017-02-28 12:48:00,0.17,2.18,0.00,20.71,23.94,27.96,14.99,48.24,1039.07,2039.97,2623.25,2586.74,2921.20,600.07,614.13,8.86,0000 0000 0000 0000 000000
2017-02-28 12:53:02,0.16,2.19,0.00,20.66,23.92,27.95,14.92,48.20,1039.06,2039.98,2620.37,2584.97,2919.11,600.31,614.36,8.91,0000 0000 0000 0000 000000
2017-02-28 12:58:03,0.16,2.20,0.00,20.65,23.91,27.93,14.91,48.24,1038.82,2039.99,2617.42,2583.33,2916.96,599.78,613.69,8.96,0000 0000 0000 0000 000000
2017-02-28 13:03:04,0.16,2.21,0.00,20.67,23.90,27.92,14.90,48.21,1038.74,2039.99,2614.49,2581.69,2914.93,599.71,613.60,9.01,0000 0000 0000 0000 000000